Location: Gleizolles
(44.4833°N, 6.7667°E)
Time: 11:54:51
(UTC+00:00)

Envisat - Pass Details

Date: 15 December 2021
Orbit: 764 x 766 km, 98.2° (Epoch: 20 January)

Event Time Altitude Azimuth Distance (km) Brightness Sun altitude
Rises 03:42:56 0° 23° (NNE) 3,242 6.5 -34.5°
Reaches altitude 10° 03:45:33 10° 35° (NE) 2,310 5.8 -34.1°
Maximum altitude 03:49:56 29° 95° (E) 1,394 4.8 -33.3°
Drops below altitude 10° 03:54:16 10° 154° (SSE) 2,294 5.7 -32.5°
Sets 03:56:51 0° 166° (SSE) 3,215 6.4 -32.1°
